JBU2522 KIAH-KMEM

Flight info

Callsign JBU2522
Flight time 1h 14m
Altitude 39000
Route LURIC8 LURIC ELD HOBRK4
Aircraft A321/M-SDE3FGHIRWY/LB1

Departure

Time 2026-05-04 02:47
Airport George Bush Intercontinental Airport (KIAH)

Arrival

Time 2026-05-04 04:02
Airport Memphis International Airport (KMEM)
Time Latitude Longitude Altitude Speed Heading
2026-05-04 02:07 29.98854 -95.34887 107 ft 0 kts 270°
2026-05-04 02:33 29.98854 -95.34881 107 ft 2 kts 270°
2026-05-04 02:33 29.98854 -95.34859 107 ft 3 kts 271°
2026-05-04 02:34 29.98852 -95.34836 107 ft 3 kts 289°
2026-05-04 02:34 29.98844 -95.34818 106 ft 3 kts 323°
2026-05-04 02:34 29.98832 -95.34811 104 ft 1 kts 359°
2026-05-04 02:34 29.98819 -95.34811 106 ft 3 kts
2026-05-04 02:35 29.98808 -95.34811 106 ft 0 kts
2026-05-04 02:38 29.98818 -95.34811 106 ft 4 kts 359°
2026-05-04 02:38 29.98860 -95.34812 107 ft 8 kts 359°
2026-05-04 02:38 29.98923 -95.34813 107 ft 10 kts 359°
2026-05-04 02:39 29.98977 -95.34813 107 ft 0 kts
2026-05-04 02:40 29.98981 -95.34813 107 ft 3 kts
2026-05-04 02:40 29.99008 -95.34813 107 ft 2 kts 360°
2026-05-04 02:40 29.99028 -95.34813 107 ft 0 kts 360°
2026-05-04 02:41 29.99036 -95.34813 107 ft 6 kts 360°
2026-05-04 02:42 29.99058 -95.34814 107 ft 0 kts 354°
2026-05-04 02:42 29.99063 -95.34816 107 ft 1 kts 339°
2026-05-04 02:42 29.99078 -95.34839 107 ft 7 kts 291°
2026-05-04 02:42 29.99087 -95.34921 107 ft 12 kts 273°
2026-05-04 02:43 29.99089 -95.35027 107 ft 14 kts 271°
2026-05-04 02:43 29.99091 -95.35149 107 ft 16 kts 270°
2026-05-04 02:43 29.99091 -95.35289 107 ft 18 kts 269°
2026-05-04 02:43 29.99089 -95.35431 107 ft 15 kts 269°
2026-05-04 02:44 29.99031 -95.35484 107 ft 11 kts 180°
2026-05-04 02:44 29.98952 -95.35484 107 ft 12 kts 180°
2026-05-04 02:44 29.98901 -95.35520 107 ft 10 kts 239°
2026-05-04 02:44 29.98866 -95.35598 106 ft 12 kts 242°
2026-05-04 02:45 29.98828 -95.35679 106 ft 6 kts 241°
2026-05-04 02:45 29.98827 -95.35680 106 ft 0 kts 241°
2026-05-04 02:46 29.98816 -95.35704 108 ft 10 kts 241°
2026-05-04 02:46 29.98752 -95.35758 109 ft 12 kts 175°
2026-05-04 02:46 29.98596 -95.35670 108 ft 55 kts 152°
2026-05-04 02:47 29.98009 -95.35317 109 ft 131 kts 152°
2026-05-04 02:47 29.97389 -95.34933 205 ft 161 kts 152°
2026-05-04 02:47 29.96404 -95.34324 983 ft 160 kts 153°
2026-05-04 02:47 29.95451 -95.33659 1784 ft 160 kts 146°
2026-05-04 02:48 29.94521 -95.32845 2167 ft 179 kts 135°
2026-05-04 02:48 29.93995 -95.31456 2393 ft 206 kts 97°
2026-05-04 02:48 29.94314 -95.29793 2591 ft 230 kts 63°
2026-05-04 02:48 29.95518 -95.28447 3020 ft 244 kts 26°
2026-05-04 02:49 29.97089 -95.28048 4105 ft 230 kts
2026-05-04 02:49 29.98660 -95.27886 5035 ft 224 kts 14°
2026-05-04 02:49 30.00082 -95.27130 5848 ft 229 kts 30°
2026-05-04 02:49 30.01471 -95.26187 6671 ft 234 kts 30°
2026-05-04 02:50 30.02885 -95.25218 7474 ft 238 kts 30°
2026-05-04 02:50 30.04325 -95.24228 8280 ft 243 kts 29°
2026-05-04 02:50 30.05791 -95.23220 9072 ft 249 kts 29°
2026-05-04 02:50 30.07354 -95.22150 9482 ft 273 kts 29°
2026-05-04 02:51 30.09039 -95.21000 10128 ft 282 kts 29°
2026-05-04 02:51 30.10774 -95.19815 10661 ft 301 kts 29°
2026-05-04 02:51 30.12645 -95.18539 10957 ft 325 kts 29°
2026-05-04 02:51 30.14652 -95.17171 11357 ft 342 kts 29°
2026-05-04 02:52 30.16721 -95.15753 12061 ft 349 kts 29°
2026-05-04 02:52 30.18820 -95.14312 12838 ft 353 kts 29°
2026-05-04 02:52 30.20949 -95.12854 13622 ft 358 kts 29°
2026-05-04 02:52 30.23105 -95.11379 14338 ft 362 kts 28°
2026-05-04 02:53 30.25280 -95.09889 15040 ft 365 kts 28°
2026-05-04 02:53 30.27476 -95.08381 15758 ft 369 kts 27°
2026-05-04 02:53 30.29690 -95.06859 16472 ft 372 kts 27°
2026-05-04 02:53 30.31926 -95.05319 17194 ft 376 kts 27°
2026-05-04 02:54 30.34184 -95.03765 17902 ft 379 kts 26°
2026-05-04 02:54 30.36460 -95.02199 18568 ft 382 kts 26°
2026-05-04 02:54 30.38755 -95.00621 19162 ft 386 kts 26°
2026-05-04 02:54 30.41074 -94.99028 19769 ft 389 kts 26°
2026-05-04 02:55 30.45771 -94.95796 20995 ft 396 kts 25°
2026-05-04 02:55 30.48145 -94.94157 21610 ft 399 kts 25°
2026-05-04 02:55 30.50547 -94.92498 22218 ft 403 kts 25°
2026-05-04 02:56 30.52966 -94.90826 22830 ft 407 kts 25°
2026-05-04 02:56 30.55406 -94.89140 23435 ft 410 kts 25°
2026-05-04 02:56 30.57844 -94.87383 23951 ft 415 kts 26°
2026-05-04 02:56 30.60276 -94.85538 24433 ft 419 kts 27°
2026-05-04 02:57 30.62707 -94.83642 24903 ft 423 kts 27°
2026-05-04 02:57 30.65150 -94.81717 25365 ft 426 kts 27°
2026-05-04 02:57 30.67612 -94.79785 25814 ft 429 kts 27°
2026-05-04 02:57 30.70100 -94.77844 26281 ft 431 kts 26°
2026-05-04 02:58 30.72522 -94.75932 27002 ft 407 kts 26°
2026-05-04 02:58 30.74814 -94.74098 27037 ft 392 kts 25°
2026-05-04 02:58 30.77037 -94.72356 27043 ft 383 kts 25°
2026-05-04 02:58 30.79240 -94.70644 27044 ft 377 kts 24°
2026-05-04 02:59 30.81380 -94.68969 27043 ft 363 kts 24°
2026-05-04 02:59 30.83428 -94.67356 27119 ft 349 kts 24°
2026-05-04 02:59 30.85376 -94.65834 27228 ft 335 kts 22°
2026-05-04 02:59 30.87272 -94.64362 27362 ft 320 kts 22°
2026-05-04 03:00 30.89069 -94.62968 27474 ft 304 kts 21°
2026-05-04 03:00 30.90793 -94.61639 27591 ft 291 kts 20°
2026-05-04 03:00 30.92533 -94.60342 27538 ft 307 kts 20°
2026-05-04 03:00 30.94395 -94.58997 27548 ft 324 kts 20°
2026-05-04 03:01 30.96369 -94.57559 27474 ft 346 kts 21°
2026-05-04 03:01 30.98461 -94.56003 27335 ft 369 kts 23°
2026-05-04 03:01 31.00682 -94.54314 27176 ft 393 kts 24°
2026-05-04 03:01 31.03022 -94.52502 27005 ft 416 kts 25°
2026-05-04 03:02 31.05476 -94.50582 27024 ft 431 kts 25°
2026-05-04 03:02 31.07977 -94.48607 27416 ft 436 kts 25°
2026-05-04 03:02 31.10497 -94.46611 27881 ft 439 kts 25°
2026-05-04 03:02 31.13029 -94.44616 28360 ft 441 kts 24°
2026-05-04 03:03 31.15584 -94.42617 28836 ft 443 kts 24°
2026-05-04 03:03 31.18154 -94.40620 29305 ft 445 kts 23°
2026-05-04 03:03 31.20736 -94.38613 29766 ft 447 kts 23°
2026-05-04 03:03 31.23332 -94.36592 30201 ft 449 kts 23°
2026-05-04 03:04 31.25940 -94.34561 30558 ft 452 kts 23°
2026-05-04 03:04 31.28565 -94.32517 30900 ft 455 kts 23°
2026-05-04 03:04 31.31204 -94.30459 31243 ft 458 kts 23°
2026-05-04 03:04 31.33857 -94.28389 31586 ft 460 kts 22°
2026-05-04 03:05 31.36529 -94.26301 31950 ft 463 kts 22°
2026-05-04 03:05 31.39200 -94.24208 32456 ft 462 kts 22°
2026-05-04 03:05 31.41869 -94.22110 32949 ft 461 kts 22°
2026-05-04 03:05 31.44526 -94.20022 33430 ft 460 kts 22°
2026-05-04 03:06 31.47185 -94.17935 33917 ft 460 kts 22°
2026-05-04 03:06 31.49841 -94.15851 34361 ft 459 kts 22°
2026-05-04 03:06 31.52486 -94.13771 34778 ft 458 kts 22°
2026-05-04 03:06 31.55107 -94.11699 35333 ft 449 kts 22°
2026-05-04 03:07 31.57711 -94.09638 35577 ft 452 kts 22°
2026-05-04 03:07 31.60325 -94.07582 35924 ft 453 kts 22°
2026-05-04 03:07 31.62948 -94.05518 36335 ft 453 kts 22°
2026-05-04 03:07 31.65561 -94.03461 36759 ft 452 kts 21°
2026-05-04 03:08 31.68161 -94.01411 37163 ft 451 kts 21°
2026-05-04 03:08 31.70764 -93.99357 37573 ft 449 kts 21°
2026-05-04 03:08 31.73355 -93.97310 37955 ft 448 kts 21°
2026-05-04 03:08 31.75937 -93.95267 38327 ft 448 kts 21°
2026-05-04 03:09 31.78518 -93.93222 38694 ft 447 kts 21°
2026-05-04 03:09 31.81090 -93.91184 38993 ft 446 kts 21°
2026-05-04 03:09 31.83668 -93.89144 39104 ft 447 kts 22°
2026-05-04 03:10 31.88859 -93.85040 39128 ft 455 kts 22°
2026-05-04 03:10 31.94167 -93.80838 39122 ft 463 kts 22°
2026-05-04 03:11 31.99506 -93.76585 39118 ft 464 kts 22°
2026-05-04 03:11 32.04862 -93.72303 39118 ft 464 kts 22°
2026-05-04 03:12 32.10211 -93.68034 39115 ft 464 kts 22°
2026-05-04 03:12 32.15525 -93.63783 39133 ft 465 kts 22°
2026-05-04 03:13 32.20879 -93.59500 39137 ft 465 kts 22°
2026-05-04 03:13 32.26246 -93.55205 39139 ft 466 kts 22°
2026-05-04 03:14 32.31606 -93.50901 39146 ft 466 kts 22°
2026-05-04 03:14 32.36961 -93.46590 39144 ft 466 kts 22°
2026-05-04 03:15 32.42313 -93.42275 39141 ft 465 kts 22°
2026-05-04 03:15 32.47668 -93.37965 39156 ft 465 kts 22°
2026-05-04 03:16 32.53019 -93.33652 39166 ft 465 kts 22°
2026-05-04 03:16 32.58363 -93.29332 39169 ft 465 kts 22°
2026-05-04 03:17 32.63698 -93.25011 39169 ft 465 kts 22°
2026-05-04 03:17 32.69047 -93.20673 39166 ft 465 kts 22°
2026-05-04 03:18 32.74388 -93.16334 39162 ft 465 kts 22°
2026-05-04 03:18 32.79722 -93.11995 39151 ft 465 kts 22°
2026-05-04 03:19 32.85052 -93.07642 39146 ft 464 kts 22°
2026-05-04 03:19 32.90295 -93.03358 39102 ft 455 kts 22°
2026-05-04 03:20 32.95557 -92.99067 39105 ft 460 kts 22°
2026-05-04 03:20 33.00849 -92.94755 39106 ft 461 kts 22°
2026-05-04 03:21 33.06140 -92.90427 39108 ft 461 kts 22°
2026-05-04 03:21 33.11429 -92.86077 39113 ft 462 kts 22°
2026-05-04 03:22 33.16718 -92.81721 39126 ft 462 kts 22°
2026-05-04 03:22 33.22015 -92.77364 39136 ft 463 kts 22°
2026-05-04 03:22 33.24606 -92.75028 39134 ft 474 kts 30°
2026-05-04 03:23 33.26918 -92.72133 39131 ft 490 kts 41°
2026-05-04 03:23 33.30886 -92.65378 39128 ft 497 kts 45°
2026-05-04 03:24 33.34824 -92.58577 39126 ft 498 kts 45°
2026-05-04 03:24 33.38780 -92.51772 39121 ft 498 kts 45°
2026-05-04 03:25 33.42731 -92.44953 39119 ft 499 kts 45°
2026-05-04 03:25 33.46678 -92.38128 39120 ft 498 kts 45°
2026-05-04 03:26 33.50603 -92.31277 39122 ft 498 kts 45°
2026-05-04 03:26 33.54534 -92.24445 39118 ft 498 kts 45°
2026-05-04 03:27 33.58476 -92.17618 39115 ft 498 kts 45°
2026-05-04 03:27 33.62409 -92.10778 39117 ft 498 kts 46°
2026-05-04 03:28 33.66320 -92.03933 39122 ft 497 kts 46°
2026-05-04 03:28 33.70129 -91.97255 39090 ft 481 kts 45°
2026-05-04 03:29 33.73877 -91.90683 39101 ft 477 kts 45°
2026-05-04 03:29 33.77634 -91.84119 38611 ft 480 kts 45°
2026-05-04 03:29 33.79509 -91.80841 37896 ft 484 kts 46°
2026-05-04 03:30 33.81419 -91.77491 37097 ft 489 kts 47°
2026-05-04 03:30 33.83344 -91.74106 36374 ft 492 kts 48°
2026-05-04 03:30 33.85254 -91.70727 36051 ft 485 kts 48°
2026-05-04 03:30 33.87141 -91.67385 35509 ft 481 kts 48°
2026-05-04 03:31 33.89027 -91.64050 34579 ft 482 kts 49°
2026-05-04 03:31 33.90913 -91.60712 33707 ft 480 kts 50°
2026-05-04 03:31 33.92777 -91.57440 33255 ft 466 kts 46°
2026-05-04 03:31 33.94811 -91.54508 32754 ft 450 kts 42°
2026-05-04 03:32 33.96855 -91.51701 32258 ft 440 kts 42°
2026-05-04 03:32 33.98852 -91.48959 31780 ft 430 kts 42°
2026-05-04 03:32 34.00801 -91.46278 31311 ft 421 kts 41°
2026-05-04 03:32 34.02710 -91.43647 30849 ft 412 kts 41°
2026-05-04 03:33 34.04578 -91.41073 30407 ft 405 kts 41°
2026-05-04 03:33 34.06428 -91.38522 29933 ft 404 kts 42°
2026-05-04 03:33 34.08276 -91.35979 29489 ft 403 kts 42°
2026-05-04 03:33 34.10120 -91.33440 29054 ft 402 kts 42°
2026-05-04 03:34 34.11336 -91.31763 28778 ft 401 kts 42°
2026-05-04 03:34 34.13171 -91.29228 28355 ft 400 kts 43°
2026-05-04 03:34 34.14996 -91.26700 27928 ft 399 kts 43°
2026-05-04 03:34 34.16813 -91.24179 27529 ft 394 kts 43°
2026-05-04 03:35 34.18590 -91.21709 27153 ft 388 kts 43°
2026-05-04 03:35 34.20360 -91.19255 26750 ft 386 kts 43°
2026-05-04 03:35 34.22123 -91.16819 26369 ft 384 kts 43°
2026-05-04 03:35 34.23879 -91.14391 25980 ft 383 kts 43°
2026-05-04 03:36 34.25628 -91.11967 25576 ft 382 kts 43°
2026-05-04 03:36 34.27372 -91.09554 25162 ft 381 kts 43°
2026-05-04 03:36 34.29111 -91.07150 24768 ft 380 kts 44°
2026-05-04 03:36 34.30848 -91.04745 24359 ft 379 kts 44°
2026-05-04 03:37 34.32581 -91.02340 23937 ft 379 kts 44°
2026-05-04 03:37 34.34312 -90.99932 23471 ft 379 kts 44°
2026-05-04 03:37 34.36040 -90.97521 23017 ft 377 kts 45°
2026-05-04 03:37 34.37750 -90.95131 22572 ft 375 kts 45°
2026-05-04 03:38 34.39456 -90.92751 22133 ft 373 kts 45°
2026-05-04 03:38 34.41155 -90.90390 21694 ft 371 kts 45°
2026-05-04 03:38 34.42846 -90.88036 21242 ft 370 kts 45°
2026-05-04 03:38 34.44528 -90.85688 20811 ft 368 kts 45°
2026-05-04 03:39 34.46204 -90.83348 20373 ft 367 kts 45°
2026-05-04 03:39 34.47869 -90.81017 19917 ft 366 kts 45°
2026-05-04 03:39 34.49531 -90.78686 19480 ft 365 kts 45°
2026-05-04 03:39 34.51181 -90.76350 19037 ft 364 kts 46°
2026-05-04 03:40 34.52803 -90.74001 18587 ft 363 kts 47°
2026-05-04 03:40 34.54410 -90.71643 18087 ft 363 kts 47°
2026-05-04 03:40 34.56015 -90.69279 17584 ft 361 kts 47°
2026-05-04 03:40 34.57603 -90.66941 17139 ft 358 kts 47°
2026-05-04 03:41 34.59182 -90.64621 16697 ft 355 kts 47°
2026-05-04 03:41 34.60743 -90.62322 16268 ft 352 kts 47°
2026-05-04 03:41 34.62293 -90.60030 15865 ft 349 kts 48°
2026-05-04 03:41 34.63778 -90.57758 15701 ft 338 kts 49°
2026-05-04 03:42 34.65210 -90.55515 15356 ft 335 kts 49°
2026-05-04 03:42 34.66622 -90.53288 14959 ft 333 kts 49°
2026-05-04 03:42 34.68029 -90.51074 14633 ft 329 kts 49°
2026-05-04 03:42 34.69424 -90.48878 14277 ft 326 kts 49°
2026-05-04 03:43 34.70802 -90.46712 13962 ft 323 kts 49°
2026-05-04 03:43 34.72168 -90.44570 13627 ft 320 kts 49°
2026-05-04 03:43 34.73528 -90.42434 13319 ft 318 kts 49°
2026-05-04 03:43 34.74879 -90.40317 13015 ft 316 kts 49°
2026-05-04 03:44 34.76227 -90.38208 12714 ft 315 kts 49°
2026-05-04 03:44 34.77568 -90.36111 12418 ft 313 kts 50°
2026-05-04 03:44 34.78881 -90.34046 12207 ft 306 kts 50°
2026-05-04 03:44 34.80152 -90.32042 11971 ft 301 kts 50°
2026-05-04 03:45 34.81446 -90.30005 11716 ft 299 kts 50°
2026-05-04 03:45 34.82716 -90.28006 11467 ft 298 kts 50°
2026-05-04 03:45 34.83982 -90.26015 11216 ft 297 kts 50°
2026-05-04 03:45 34.85227 -90.24056 10979 ft 296 kts 50°
2026-05-04 03:46 34.86482 -90.22080 10737 ft 295 kts 51°
2026-05-04 03:46 34.87730 -90.20111 10692 ft 294 kts 51°
2026-05-04 03:46 34.88981 -90.18135 10695 ft 295 kts 51°
2026-05-04 03:46 34.90241 -90.16148 10465 ft 294 kts 51°
2026-05-04 03:47 34.91486 -90.14186 10219 ft 291 kts 50°
2026-05-04 03:47 34.92905 -90.12484 9997 ft 284 kts 33°
2026-05-04 03:47 34.94643 -90.11454 9837 ft 274 kts 14°
2026-05-04 03:47 34.96487 -90.11137 9713 ft 263 kts 359°
2026-05-04 03:48 34.98294 -90.11118 9574 ft 256 kts 359°
2026-05-04 03:48 35.00057 -90.11085 9447 ft 252 kts 359°
2026-05-04 03:48 35.01784 -90.11050 9342 ft 244 kts 359°
2026-05-04 03:48 35.03464 -90.11014 9106 ft 240 kts 359°
2026-05-04 03:49 35.05127 -90.10978 8804 ft 238 kts 359°
2026-05-04 03:49 35.06779 -90.10946 8502 ft 237 kts 358°
2026-05-04 03:49 35.08421 -90.10917 8199 ft 235 kts 358°
2026-05-04 03:49 35.10057 -90.10885 7884 ft 234 kts 358°
2026-05-04 03:50 35.11682 -90.10879 7578 ft 233 kts 356°
2026-05-04 03:50 35.13295 -90.10902 7283 ft 230 kts 356°
2026-05-04 03:50 35.14886 -90.10933 6985 ft 228 kts 355°
2026-05-04 03:50 35.16463 -90.10961 6693 ft 225 kts 355°
2026-05-04 03:51 35.18023 -90.10986 6402 ft 222 kts 355°
2026-05-04 03:51 35.19541 -90.11008 6105 ft 215 kts 354°
2026-05-04 03:51 35.21012 -90.11032 5833 ft 208 kts 354°
2026-05-04 03:51 35.22434 -90.11056 5570 ft 206 kts 353°
2026-05-04 03:52 35.23868 -90.11076 5176 ft 209 kts 353°
2026-05-04 03:52 35.25324 -90.11088 4785 ft 209 kts 353°
2026-05-04 03:52 35.26778 -90.11091 4376 ft 209 kts 353°
2026-05-04 03:52 35.28234 -90.11082 4012 ft 208 kts 353°
2026-05-04 03:53 35.29678 -90.11074 3983 ft 209 kts 353°
2026-05-04 03:53 35.31128 -90.10936 3972 ft 214 kts 12°
2026-05-04 03:53 35.32376 -90.09921 3850 ft 221 kts 48°
2026-05-04 03:53 35.33006 -90.08196 3433 ft 229 kts 81°
2026-05-04 03:54 35.33155 -90.06227 3021 ft 232 kts 100°
2026-05-04 03:54 35.32569 -90.04485 2976 ft 219 kts 136°
2026-05-04 03:54 35.31483 -90.03218 2980 ft 215 kts 147°
2026-05-04 03:54 35.30323 -90.02054 2977 ft 215 kts 148°
2026-05-04 03:55 35.29165 -90.00901 2976 ft 214 kts 148°
2026-05-04 03:55 35.27986 -89.99792 2979 ft 211 kts 157°
2026-05-04 03:55 35.26668 -89.99235 2998 ft 189 kts 180°
2026-05-04 03:55 35.25447 -89.99178 3000 ft 165 kts 186°
2026-05-04 03:56 35.24364 -89.99155 2986 ft 149 kts 187°
2026-05-04 03:56 35.23362 -89.99135 3007 ft 142 kts 187°
2026-05-04 03:56 35.22380 -89.99117 2999 ft 140 kts 188°
2026-05-04 03:56 35.21409 -89.99097 2998 ft 139 kts 188°
2026-05-04 03:57 35.20439 -89.99077 2999 ft 140 kts 188°
2026-05-04 03:57 35.19461 -89.99057 2989 ft 141 kts 187°
2026-05-04 03:57 35.18477 -89.99035 2892 ft 141 kts 187°
2026-05-04 03:57 35.17508 -89.99014 2746 ft 138 kts 187°
2026-05-04 03:58 35.15609 -89.98973 2409 ft 136 kts 187°
2026-05-04 03:58 35.14660 -89.98953 2231 ft 136 kts 186°
2026-05-04 03:58 35.13739 -89.98932 2073 ft 130 kts 186°
2026-05-04 03:59 35.13391 -89.98924 1999 ft 128 kts 186°
2026-05-04 03:59 35.13076 -89.98920 1927 ft 140 kts 186°
2026-05-04 03:59 35.12052 -89.98879 1784 ft 141 kts 182°
2026-05-04 03:59 35.11107 -89.98826 1537 ft 132 kts 186°
2026-05-04 04:00 35.10202 -89.98849 1293 ft 129 kts 185°
2026-05-04 04:00 35.09307 -89.98839 1100 ft 128 kts 180°
2026-05-04 04:00 35.08412 -89.98814 845 ft 128 kts 179°
2026-05-04 04:00 35.07535 -89.98807 778 ft 128 kts 179°
2026-05-04 04:01 35.06648 -89.98785 666 ft 127 kts 179°
2026-05-04 04:01 35.05766 -89.98764 469 ft 125 kts 179°
2026-05-04 04:01 35.04889 -89.98743 335 ft 127 kts 179°
2026-05-04 04:01 35.04061 -89.98725 307 ft 103 kts 180°
2026-05-04 04:02 35.03512 -89.98714 319 ft 54 kts 179°
2026-05-04 04:02 35.03298 -89.98699 324 ft 22 kts 170°
2026-05-04 04:02 35.03154 -89.98638 321 ft 25 kts 150°
2026-05-04 04:02 35.03108 -89.98597 320 ft 0 kts 137°
2026-05-04 04:03 35.03093 -89.98578 321 ft 3 kts 132°
2026-05-04 04:03 35.03079 -89.98493 321 ft 0 kts 50°
2026-05-04 04:04 35.03143 -89.98473 322 ft 26 kts
2026-05-04 04:04 35.03447 -89.98479 320 ft 49 kts 359°
2026-05-04 04:04 35.03630 -89.98483 316 ft 23 kts 356°
2026-05-04 04:04 35.03824 -89.98490 312 ft 32 kts 359°
2026-05-04 04:05 35.04005 -89.98495 309 ft 29 kts 358°
2026-05-04 04:05 35.04229 -89.98499 303 ft 34 kts 359°
2026-05-04 04:05 35.04471 -89.98505 303 ft 34 kts 359°
2026-05-04 04:05 35.04580 -89.98508 303 ft 0 kts 357°
2026-05-04 04:06 35.04535 -89.98495 302 ft 13 kts 178°
2026-05-04 04:06 35.04510 -89.98458 301 ft 4 kts 81°
2026-05-04 04:06 35.04513 -89.98425 304 ft 0 kts 85°